Starlink 11614

operational
NORAD ID: 63270 Int'l Des: 2025-053 Owner: SPXS Country: US Constellation: starlink
LEOCIRCULAR

About Starlink 11614

Description loading...

Live Position

Loading 3D Globe...

Upcoming Passes

Altitude History

Altitude vs Time

uPlot chart will show altitude changes over time

Two-Line Element Set

1 63270U 25053F 25259.63878649 .00217159 00000-0 16537-2 0 9996
2 63270 43.0008 81.5459 0003599 283.3951 76.6516 15.70812105 30299
Epoch: Sep 16, 2025 • Age: 38 hours

Current Status

Altitude 354.6 km
Velocity 7.70 km/s
Sub-Earth Point 22.60°N, 16.62°E
Launch Date Mar 15, 2025
Age 0.5 years
Type internet

Technical Details

Classification Payload
Mass 960.00 kg
Dry Mass 910.00 kg
Total Mass 960.00 kg
Length 0.30 m
Diameter 4.10 m
Span 29.00 m
Shape Box + pan
Manufacturer SPXS
Bus Type Starlink V2MD
Phase Status In Orbit
Owner/State SPXS/US

Large Constellations

Loading constellations...